Location: Auckland
(36.8670°S, 174.7670°E)
Time: 20:28:59
(UTC+12:00)

Courier 1B Rocket - Pass Details

Date: 23 July 2019
Orbit: 920 x 1202 km, 28.3° (Epoch: 21 August)

Event Time Altitude Azimuth Distance (km) Brightness Sun altitude
Rises 09:39:03 0° 277° (W) 3,910 7.8 20.5°
Reaches altitude 10° 09:43:06 10° 298° (WNW) 2,887 7.4 21.0°
Maximum altitude 09:47:04 16° 332° (NNW) 2,417 7.5 21.6°
Drops below altitude 10° 09:50:53 10° 7° (N) 2,760 8.5 22.0°
Sets 09:54:38 0° 28° (NNE) 3,652 9.4 22.5°
